Location: Les Jeannots
(43.2262°N, 5.5774°E)
Time: 19:09:27
(UTC+00:00)

Iridium 2 - Pass Details

Date: 05 July 2020
Orbit: 503 x 516 km, 85.5° (Epoch: 12 August)

Event Time Altitude Azimuth Distance (km) Brightness Sun altitude
Rises 22:36:41 0° 354° (N) 2,648 8.7 -22.4°
Reaches altitude 10° 22:38:49 10° 352° (N) 1,755 7.5 -22.5°
Enters shadow 22:42:34 73° 283° (WNW) 544 3.7 -22.7°
